Regional Weather Roundup
Issued by NWS

Home | Current Version | Previous Version | Text Only | Print | Product List | Glossary On
Versions: 1 2 3 4 5 6 7 8 9 10 11 12 13 14 15 16 17 18 19 20 21 22 23 24 25 26 27 28 29 30 31 32 33 34 35 36 37 38 39 40 41 42 43 44 45 46 47 48 49 50
000
ASUS44 KJAN 260310
RWRMS

MISSISSIPPI HOURLY WEATHER ROUNDUP
NATIONAL WEATHER SERVICE JACKSON MS
1000 PM CDT TUE JUL 25 2017

NOTE: "FAIR: INDICATES FEW OR NO CLOUDS BELOW 12,000 FEET WITH NO
SIGNIFICANT WEATHER AND/OR OBSTRUCTIONS TO VISIBILITY.

MSZ001>002-007>008-010>013-018>021-025>028-034>036-260400-
NORTHWEST MISSISSIPPI

CITY           SKY/WX    TMP DP  RH WIND       PRES   REMARKS
BATESVILLE     FAIR      77  73  88 CALM      30.08R
CLARKSDALE       N/A     81  81 100 S6        30.07S HX  91
CLEVELAND      FAIR      78  78 100 CALM      30.07R
GREENWOOD      PTCLDY    76  75  97 CALM      30.08S
GREENVILLE     CLOUDY    77  73  87 S6        30.06S
OXFORD         FAIR      73  73 100 CALM      30.10S FOG
TUNICA           N/A     77  73  88 S5        30.06S
WINONA         FAIR      76  76 100 CALM      30.10R
$$

MSZ003>006-009-014>017-022>024-029>033-037>039-260400-
NORTHEAST MISSISSIPPI

CITY           SKY/WX    TMP DP  RH WIND       PRES   REMARKS
COLUMBUS AFB   NOT AVBL
CORINTH        FAIR      79  73  83 CALM      30.08R
GOLDN TRIANGLE MOCLDY    82  72  69 W3        30.05R
STARKVILLE     FAIR      77  73  88 CALM      30.10R
TUPELO         PTCLDY    82  74  76 CALM      30.06S
$$

MSZ040-058-260400-
CENTRAL MISSISSIPPI

CITY           SKY/WX    TMP DP  RH WIND       PRES   REMARKS
JACKSON INTL   MOCLDY    75  73  93 S3        30.10S
JACKSON HAWKNS PTCLDY    74  74 100 SE3       30.10F
MADISON        FAIR      72  70  94 CALM      30.10R
MERIDIAN KEY   CLEAR     78  77  96 CALM      30.09S
MERIDIAN NAS   MOCLDY    78  71  79 CALM      30.09R
RAYMOND        FAIR      73  72  94 CALM      30.10S
$$

MSZ059>079-260400-
SOUTH MISSISSIPPI

CITY           SKY/WX    TMP DP  RH WIND       PRES   REMARKS
COLUMBIA       FOG       73  73 100 CALM      30.14R VSB 1
HATTIESBURG    CLOUDY    76  76 100 CALM      30.11S
LAUREL         FAIR      74  74 100 CALM      30.11R
MCCOMB         CLEAR     73  72  96 CALM      30.12S FOG
NATCHEZ        CLEAR     77  74  90 S5        30.10F
PINE BELT      CLEAR     74  74 100 CALM      30.12S
$$

MSZ080>082-260400-
COASTAL MISSISSIPPI

CITY           SKY/WX    TMP DP  RH WIND       PRES   REMARKS
BILOXI         PTCLDY    77  74  91 CALM      30.10R
PASCAGOULA     CLEAR     75  72  90 CALM      30.11R
GULFPORT       CLEAR     77  76  96 CALM      30.10R
$$

LAZ007>009-015>016-023>026-260400-
NORTHEAST LOUISIANA

CITY           SKY/WX    TMP DP  RH WIND       PRES   REMARKS
BASTROP        FAIR      78  78  98 CALM      30.09S
TALLULAH/VBURG PTCLDY    75  74  96 S3        30.09R
VIDALIA        FAIR      77  76  99 SW7       30.08F
$$



USA.gov is the U.S. government's official web portal to all federal, state and local government web resources and services.